TimeEST,TemperatureF,Dew PointF,Humidity,Sea Level PressureIn,VisibilityMPH,Wind Direction,Wind SpeedMPH,Gust SpeedMPH,PrecipitationIn,Events,Conditions,WindDirDegrees,DateUTC
12:26 AM,53.6,51.8,94,30.08,9.0,North,10.4,-,0.00,,Overcast,360,2013-01-14 05:26:00
12:53 AM,51.8,48.2,88,30.09,10.0,North,8.1,-,N/A,,Overcast,10,2013-01-14 05:53:00
1:40 AM,48.2,44.6,87,30.10,7.0,North,10.4,-,N/A,Rain,Light Rain,350,2013-01-14 06:40:00
1:53 AM,48.0,45.0,89,30.10,7.0,North,10.4,-,0.00,Rain,Light Rain,350,2013-01-14 06:53:00
2:06 AM,46.4,46.4,100,30.10,1.8,North,9.2,-,0.02,Rain,Rain,10,2013-01-14 07:06:00
2:21 AM,46.4,44.6,93,30.11,3.0,North,9.2,-,0.04,Rain,Light Rain,360,2013-01-14 07:21:00
2:31 AM,46.4,46.4,100,30.11,2.0,North,9.2,-,0.05,Rain,Light Rain,10,2013-01-14 07:31:00
2:42 AM,46.4,44.6,93,30.12,2.0,North,11.5,-,N/A,Rain,Heavy Rain,10,2013-01-14 07:42:00
2:53 AM,46.0,45.0,96,30.12,2.5,North,8.1,-,0.10,Rain,Rain,350,2013-01-14 07:53:00
3:53 AM,46.0,44.1,93,30.12,2.0,North,6.9,-,0.12,Rain,Rain,360,2013-01-14 08:53:00
4:11 AM,46.4,44.6,93,30.13,4.0,North,6.9,-,0.01,Rain,Light Rain,360,2013-01-14 09:11:00
4:26 AM,46.4,44.6,93,30.13,4.0,North,5.8,-,N/A,Rain,Light Rain,10,2013-01-14 09:26:00
4:50 AM,46.4,44.6,93,30.13,2.0,North,5.8,-,0.02,Rain,Light Rain,350,2013-01-14 09:50:00
4:53 AM,46.0,45.0,96,30.13,2.0,North,6.9,-,0.02,Rain,Light Rain,350,2013-01-14 09:53:00
5:53 AM,45.0,44.1,97,30.13,2.0,NNE,10.4,-,0.00,Rain,Light Rain,20,2013-01-14 10:53:00
6:04 AM,44.6,42.8,93,30.14,3.0,North,9.2,-,0.00,,Light Drizzle,10,2013-01-14 11:04:00
6:43 AM,44.6,42.8,93,30.16,2.5,North,12.7,-,0.00,Rain,Light Rain,350,2013-01-14 11:43:00
6:53 AM,44.6,42.8,93,30.15,1.8,North,13.8,-,N/A,Rain,Light Rain,350,2013-01-14 11:53:00
7:32 AM,44.6,42.8,93,30.17,3.0,North,8.1,-,0.04,Rain,Light Rain,360,2013-01-14 12:32:00
7:53 AM,44.1,43.0,96,30.19,3.0,North,11.5,-,0.08,Rain,Light Rain,360,2013-01-14 12:53:00
7:54 AM,44.6,42.8,93,30.19,1.5,North,10.4,-,0.00,Rain,Rain,350,2013-01-14 12:54:00
8:24 AM,44.6,42.8,93,30.19,4.0,NNW,6.9,-,0.09,Rain,Light Rain,340,2013-01-14 13:24:00
8:51 AM,44.6,42.8,93,30.21,4.0,NNW,10.4,-,0.10,,Overcast,330,2013-01-14 13:51:00
8:53 AM,44.1,43.0,96,30.20,4.0,NNW,9.2,-,0.10,Rain,Light Rain,330,2013-01-14 13:53:00
9:16 AM,44.6,42.8,93,30.21,1.5,North,8.1,-,0.01,Rain,Light Rain,350,2013-01-14 14:16:00
9:53 AM,44.1,43.0,96,30.22,10.0,North,8.1,-,0.07,,Overcast,10,2013-01-14 14:53:00
10:05 AM,44.6,42.8,93,30.20,2.0,NNE,5.8,-,0.02,Rain,Heavy Rain,30,2013-01-14 15:05:00
10:36 AM,44.6,42.8,93,30.20,6.0,North,11.5,-,0.03,,Overcast,10,2013-01-14 15:36:00
10:49 AM,44.6,42.8,93,30.21,7.0,North,10.4,-,0.03,,Overcast,350,2013-01-14 15:49:00
10:53 AM,44.1,43.0,96,30.20,7.0,North,10.4,-,0.03,,Overcast,360,2013-01-14 15:53:00
11:11 AM,44.6,42.8,93,30.21,7.0,North,10.4,-,0.00,Rain,Light Rain,360,2013-01-14 16:11:00
11:33 AM,44.6,42.8,93,30.19,2.0,North,12.7,-,0.02,Rain,Rain,360,2013-01-14 16:33:00
11:53 AM,44.1,43.0,96,30.18,2.0,North,8.1,-,0.06,Rain,Rain,10,2013-01-14 16:53:00
12:53 PM,44.1,43.0,96,30.14,2.0,North,12.7,-,0.09,Rain,Rain,360,2013-01-14 17:53:00
1:53 PM,44.6,42.8,93,30.11,2.0,NNE,9.2,-,N/A,Rain,Light Rain,30,2013-01-14 18:53:00
2:53 PM,45.0,44.1,97,30.14,2.0,North,4.6,-,0.08,Rain,Rain,360,2013-01-14 19:53:00
3:53 PM,45.0,44.1,97,30.17,2.0,North,9.2,-,0.17,Rain,Heavy Rain,360,2013-01-14 20:53:00
4:53 PM,44.1,42.1,93,30.21,2.0,North,15.0,-,0.22,Rain,Heavy Rain,350,2013-01-14 21:53:00
5:19 PM,42.8,42.8,100,30.21,2.0,North,13.8,-,0.15,Rain,Heavy Rain,350,2013-01-14 22:19:00
5:53 PM,41.0,39.9,96,30.26,2.0,North,9.2,-,0.23,Rain,Light Rain,350,2013-01-14 22:53:00
6:46 PM,39.2,39.2,100,30.27,5.0,North,11.5,-,0.10,Rain,Rain,350,2013-01-14 23:46:00
6:53 PM,39.9,39.0,97,30.27,5.0,North,11.5,-,0.12,Rain,Heavy Rain,10,2013-01-14 23:53:00
7:53 PM,39.0,37.9,96,30.26,5.0,North,12.7,-,0.18,Rain,Rain,10,2013-01-15 00:53:00
8:18 PM,39.2,37.4,93,30.25,3.0,North,12.7,-,0.06,Rain,Rain,350,2013-01-15 01:18:00
8:53 PM,39.0,37.9,96,30.24,4.0,North,9.2,-,0.16,Rain,Rain,10,2013-01-15 01:53:00
9:18 PM,39.2,37.4,93,30.23,4.0,North,8.1,-,0.07,Rain,Rain,10,2013-01-15 02:18:00
9:53 PM,39.9,39.0,97,30.22,4.0,NNE,6.9,-,0.12,Rain,Rain,20,2013-01-15 02:53:00
10:53 PM,39.9,39.0,97,30.20,6.0,North,9.2,-,0.04,Rain,Light Rain,360,2013-01-15 03:53:00
11:53 PM,39.9,39.0,97,30.17,8.0,North,5.8,-,0.03,,Overcast,10,2013-01-15 04:53:00